GW3883 Weather Reports


Display with metric or nautical units.
time (UTC)temp
F
wind
direction
speed
MPH
gust
MPH
rain 1hr
in
rain 24hr
in
rain mn
in
humidity
%
barometer
mb
20260506091719 58 180 0.0 0.0 0.00 0.00 0.00 92 1016.9
20260506090719 58 180 1.0 2.0 0.00 0.00 0.00 91 1016.6
20260506085721 58 180 1.0 2.0 0.00 0.00 0.00 89 1017.0
20260506084720 58 180 0.0 0.0 0.00 0.00 0.00 90 1017.2
20260506083721 58 180 0.0 0.0 0.00 0.00 0.00 89 1017.1
20260506082820 59 180 0.0 1.0 0.00 0.00 0.00 88 1017.0
20260506081819 59 180 0.0 0.0 0.00 0.00 0.00 88 1017.3
20260506080721 59 180 0.0 0.0 0.00 0.00 0.00 88 1017.6
20260506072719 59 180 0.0 0.0 0.00 0.00 0.00 88 1017.1
20260506071720 59 180 1.0 2.0 0.00 0.00 0.00 87 1017.0
20260506070819 59 180 1.0 2.0 0.00 0.00 0.00 87 1016.9
20260506061919 61 225 2.0 4.0 0.00 0.00 0.00 84 1017.7
20260506060922 61 180 2.0 3.0 0.00 0.00 0.00 82 1017.7
20260506051021 61 180 2.0 4.0 0.00 0.00 0.00 82 1017.5
20260506045119 61 180 3.0 4.0 0.00 0.00 0.00 82 1017.9
20260506044121 61 180 4.0 6.0 0.00 0.00 0.00 80 1017.9
20260506043120 62 180 5.0 7.0 0.00 0.00 0.00 81 1018.0
20260506042119 61 180 2.0 2.0 0.00 0.00 0.00 82 1018.2
20260506040120 62 360 0.0 1.0 0.00 0.00 0.00 81 1018.6
20260506035126 62 180 2.0 3.0 0.00 0.00 0.00 80 1018.3
20260506034224 62 180 2.0 3.0 0.00 0.00 0.00 80 1018.1
20260506032226 63 180 1.0 2.0 0.00 0.00 0.00 78 1018.0
20260506030324 64 180 3.0 5.0 0.00 0.00 0.00 77 1018.2
20260506025327 64 180 3.0 4.0 0.00 0.00 0.00 76 1018.1
20260506024328 64 180 2.0 3.0 0.00 0.00 0.00 74 1018.2
20260506023326 65 180 2.0 3.0 0.00 0.00 0.00 74 1018.0
20260506022325 65 180 3.0 4.0 0.00 0.00 0.00 74 1018.2
20260506021327 65 180 4.0 6.0 0.00 0.00 0.00 73 1018.3
20260506020326 66 180 4.0 6.0 0.00 0.00 0.00 73 1018.3
20260506020226 66 180 5.0 6.0 0.00 0.00 0.00 72 1018.3
20260506015226 66 180 4.0 5.0 0.00 0.00 0.00 72 1018.2
20260506014225 66 180 4.0 6.0 0.00 0.00 0.00 72 1017.9
20260506013225 67 180 4.0 6.0 0.00 0.00 0.00 70 1017.9
20260506012227 67 180 6.0 7.0 0.00 0.00 0.00 70 1017.8
20260506012126 67 180 6.0 7.0 0.00 0.00 0.00 70 1017.8
20260506011126 68 179 5.0 6.0 0.00 0.00 0.00 69 1017.6
20260506011024 68 174 4.0 7.0 0.00 0.00 0.00 69 1017.5
20260506005125 68 181 6.0 12.0 0.00 0.00 0.00 68 1017.3
20260506004224 69 202 6.0 7.0 0.00 0.00 0.00 67 1017.5
20260506003226 69 178 6.0 10.0 0.00 0.00 0.00 65 1017.5
20260506002243 70 195 6.0 8.0 0.00 0.00 0.00 64 1017.1
20260506001327 70 180 7.0 9.0 0.00 0.00 0.00 61 1017.2
20260506000425 71 180 6.0 9.0 0.00 0.00 0.00 60 1017.3
20260505235426 71 180 9.0 12.0 0.00 0.00 0.00 59 1017.2
20260505234426 72 185 6.0 9.0 0.00 0.00 0.00 58 1017.3
20260505233424 73 202 7.0 8.0 0.00 0.00 0.00 57 1017.1
20260505232426 73 211 10.0 14.0 0.00 0.00 0.00 54 1017.0
20260505231440 74 204 6.0 8.0 0.00 0.00 0.00 52 1016.9
20260505225525 76 182 6.0 7.0 0.00 0.00 0.00 46 1016.7
20260505224625 76 176 9.0 13.0 0.00 0.00 0.00 46 1016.8
20260505224541 76 180 8.0 11.0 0.00 0.00 0.00 46 1016.7
20260505223524 77 178 8.0 12.0 0.00 0.00 0.00 45 1016.7
20260505221527 77 178 8.0 9.0 0.00 0.00 0.00 46 1016.5
20260505220525 78 207 12.0 15.0 0.00 0.00 0.00 45 1016.5
20260505220427 78 191 12.0 17.0 0.00 0.00 0.00 44 1016.6
20260505214426 78 180 10.0 14.0 0.00 0.00 0.00 44 1016.7
20260505213525 78 165 6.0 12.0 0.00 0.00 0.00 44 1016.7
20260505212541 78 185 9.0 11.0 0.00 0.00 0.00 44 1016.7
20260505211625 79 169 9.0 10.0 0.00 0.00 0.00 44 1016.7
20260505210625 79 191 11.0 13.0 0.00 0.00 0.00 44 1016.8
20260505205725 79 180 9.0 12.0 0.00 0.00 0.00 43 1016.8
20260505204726 80 183 10.0 14.0 0.00 0.00 0.00 43 1016.8
20260505203727 80 170 9.0 14.0 0.00 0.00 0.00 43 1016.6
20260505203624 80 180 10.0 12.0 0.00 0.00 0.00 43 1016.7
20260505202624 79 202 13.0 15.0 0.00 0.00 0.00 45 1016.6
20260505201625 79 141 8.0 12.0 0.00 0.00 0.00 45 1016.5
20260505200641 79 140 8.0 11.0 0.00 0.00 0.00 46 1016.9
20260505195725 79 197 11.0 14.0 0.00 0.00 0.00 45 1017.1
20260505194727 80 144 5.0 7.0 0.00 0.00 0.00 44 1017.1
20260505193824 80 180 8.0 12.0 0.00 0.00 0.00 44 1017.1
20260505192841 80 207 9.0 11.0 0.00 0.00 0.00 42 1017.4
20260505191825 80 198 6.0 9.0 0.00 0.00 0.00 43 1017.8
20260505190924 80 180 9.0 10.0 0.00 0.00 0.00 43 1017.9
20260505184826 80 175 5.0 6.0 0.00 0.00 0.00 43 1018.3
20260505183825 80 217 3.0 7.0 0.00 0.00 0.00 44 1018.3
20260505182825 79 262 1.0 3.0 0.00 0.00 0.00 44 1018.4
20260505181824 78 206 8.0 10.0 0.00 0.00 0.00 45 1018.2
20260505180825 77 214 3.0 5.0 0.00 0.00 0.00 45 1018.0
20260505174924 79 154 8.0 11.0 0.00 0.00 0.00 44 1018.2
20260505173925 78 264 0.0 1.0 0.00 0.00 0.00 45 1018.3
20260505172926 78 223 2.0 5.0 0.00 0.00 0.00 47 1018.5
20260505171925 77 228 3.0 5.0 0.00 0.00 0.00 46 1018.6
20260505170925 78 180 1.0 4.0 0.00 0.00 0.00 45 1018.6
20260505165025 76 217 1.0 3.0 0.00 0.00 0.00 49 1019.0
20260505164941 76 188 5.0 6.0 0.00 0.00 0.00 48 1019.0
20260505163925 76 154 5.0 7.0 0.00 0.00 0.00 49 1019.2
20260505161926 76 180 6.0 8.0 0.00 0.00 0.00 48 1019.6
20260505161025 75 197 8.0 9.0 0.00 0.00 0.00 51 1019.5
20260505153124 74 180 6.0 7.0 0.00 0.00 0.00 55 1019.8
20260505151224 73 180 4.0 5.0 0.00 0.00 0.00 59 1019.7
20260505150227 73 183 7.0 9.0 0.00 0.00 0.00 59 1019.7
20260505150127 73 175 4.0 8.0 0.00 0.00 0.00 59 1019.6
20260505140324 70 181 5.0 7.0 0.00 0.00 0.00 66 1019.6
20260505124423 61 205 2.0 2.0 0.00 0.00 0.00 90 1019.6
20260505123424 58 180 2.0 3.0 0.00 0.00 0.00 94 1019.5
20260505122424 56 180 2.0 2.0 0.00 0.00 0.00 96 1019.6
20260505121523 55 180 0.0 0.0 0.00 0.00 0.00 96 1019.5
20260505120524 53 180 0.0 0.0 0.00 0.00 0.00 97 1019.5
20260505115525 52 180 0.0 0.0 0.00 0.00 0.00 97 1019.3
20260505114525 51 180 0.0 0.0 0.00 0.00 0.00 96 1019.1
20260505113525 50 180 0.0 0.0 0.00 0.00 0.00 96 1019.1
20260505112525 49 180 0.0 0.0 0.00 0.00 0.00 96 1018.9
20260505111524 49 180 0.0 0.0 0.00 0.00 0.00 95 1018.8
20260505110525 49 180 0.0 0.0 0.00 0.00 0.00 95 1018.8
20260505101624 49 180 0.0 0.0 0.00 0.00 0.00 95 1018.3
20260505100624 50 180 0.0 0.0 0.00 0.00 0.00 94 1018.1
20260505094625 50 180 0.0 0.0 0.00 0.00 0.00 94 1018.2
20260505093724 50 180 0.0 0.0 0.00 0.00 0.00 95 1018.3
20260505092822 50 180 0.0 0.0 0.00 0.00 0.00 95 1018.0